Location: 22
(39.7117°N, 89.5929°W)
Time: 12:52:10
(UTC-05:00)

Vanguard 3 - Pass Details

Date: 18 September 2024
Orbit: 507 x 3223 km, 33.3° (Epoch: 11 October)

Event Time Altitude Azimuth Distance (km) Brightness Sun altitude
Exits shadow 03:15:10 - 162° (SSE) 5,304 11.1 -37.3°
Reaches altitude 10° 03:17:10 10° 155° (SSE) 5,212 11.1 -37.0°
Maximum altitude 03:24:27 15° 127° (SE) 5,301 11.3 -36.0°
Drops below altitude 10° 03:32:39 10° 101° (E) 6,041 12.0 -34.8°
Sets 03:41:02 0° 82° (E) 7,184 12.8 -33.5°
